Content
SEND FEEDBACK

Daily
Averages
Monthly
Summary
Germany

GARMISCH-PARTENKIRCHEN, GERMANY


Home > Europe > Germany
Elevation: 2322 feet     Latitude: 47 30N     Longitude: 011 06E

WEATHER
 
SELECT A DAY
Number of Records: 311,051;   Date Range: 7/1/96 - 7/27/14
 
SHARE

PRINT THIS DATA

[ ← Previous Day ]
WEATHER ALMANAC - MARCH 20, 2013
[ Next Day → ]
[ °C ]   °F
Weather ElementAverageHighLow
Temperature38.7 °F53.6 °F (2:20 pm)28 °F (4:00 am)
Dewpoint27 °F35.6 °F (6:50 pm)22 °F (1:00 pm)
Humidity65.8 %93 % (10:20 pm)20 % (1:00 pm)
Barometer29.70 in29.88 in (10:00 pm)29.59 in (2:20 pm)
Wind Speed5.4 mph32.2 mph (6:20 pm)
Wind Gust47.2 mph (6:20 pm)
Weather ElementAverage
Visibility8.3 mi
Wind DirectionSE (133.3 °)

Weather ElementTotal
Precipitation---
Heating Degree Days24.2 (Base 65)
Averaged from 55 records on March 20, 2013
WEATHER CONDITIONS BREAKOUT
WIND DIRECTION BREAKOUT
WEATHER BY HOUR - MARCH 20, 2013
[ °C ]   °F
Local TimeTemperatureDewpointHumidityBarometerVisibilityWind DirectionWind SpeedGust SpeedPrecipitationEventsConditions
12:50 AM30.2 °F24.8 °F80 %29.68 in6.2 miVariable1.2 mph
1:00 AM31.0 °F24.0 °F67 %29.76 in7.0 mi°2.2 mph
1:20 AM30.2 °F23.0 °F75 %29.68 in6.2 miSSW (200°)2.3 mph
1:50 AM30.2 °F24.8 °F80 %29.68 in6.2 miVariable1.2 mphPartly Cloudy
2:20 AM28.4 °F23.0 °F80 %29.68 in6.2 miVariable1.2 mphScattered Clouds
2:50 AM28.4 °F23.0 °F80 %29.68 in6.2 miVariable2.3 mphPartly Cloudy
3:20 AM28.4 °F23.0 °F80 %29.68 in6.2 miWNW (290°)2.3 mph
3:50 AM28.4 °F23.0 °F80 %29.68 inVariable2.3 mphClear
4:00 AM28.0 °F23.0 °F74 %29.78 in25.0 mi°2.2 mphScattered Clouds
4:20 AM28.4 °F23.0 °F80 %29.68 inSW (230°)2.3 mphClear
4:50 AM28.4 °F23.0 °F80 %29.68 inVariable2.3 mphClear
5:20 AM28.4 °F23.0 °F80 %29.68 in6.2 miVariable2.3 mphPartly Cloudy
5:50 AM28.4 °F24.8 °F86 %29.68 in6.2 miVariable1.2 mphScattered Clouds
6:20 AM28.4 °F24.8 °F86 %29.68 in6.2 miVariable2.3 mphScattered Clouds
6:50 AM28.4 °F24.8 °F86 %29.68 in6.2 miVariable1.2 mphMostly Cloudy
7:00 AM29.0 °F24.0 °F75 %29.78 in25.0 mi°2.2 mphMostly Cloudy
7:20 AM30.2 °F24.8 °F80 %29.68 in6.2 miVariable1.2 mphMostly Cloudy
7:50 AM32.0 °F24.8 °F75 %29.68 in6.2 miWest (260°)3.5 mphMostly Cloudy
8:20 AM32.0 °F24.8 °F75 %29.68 in6.2 miWest (260°)5.8 mphMostly Cloudy
8:50 AM33.8 °F26.6 °F75 %29.68 in6.2 miWSW (250°)3.5 mphOvercast
9:20 AM33.8 °F24.8 °F70 %29.68 in6.2 miWest (260°)4.6 mphOvercast
9:50 AM35.6 °F24.8 °F65 %29.68 in6.2 miWSW (240°)4.6 mphOvercast
10:00 AM36.0 °F25.0 °F52 %29.75 in25.0 miWSW (240°)4.5 mphOvercast
10:20 AM37.4 °F24.8 °F60 %29.68 in6.2 miWest (270°)4.6 mphOvercast
10:50 AM39.2 °F26.6 °F61 %29.68 in6.2 miWest (270°)5.8 mphOvercast
11:20 AM42.8 °F24.8 °F49 %29.65 in6.2 miWest (270°)5.8 mphOvercast
11:50 AM44.6 °F26.6 °F49 %29.65 in6.2 miVariable1.2 mphMostly Cloudy
12:20 PM48.2 °F28.4 °F46 %29.62 in6.2 miVariable3.5 mphMostly Cloudy
12:50 PM51.8 °F23.0 °F33 %29.62 in6.2 miVariable4.6 mphMostly Cloudy
1:00 PM51.0 °F22.0 °F20 %29.64 in25.0 mi°4.5 mphScattered Clouds
1:20 PM51.8 °F23.0 °F33 %29.62 in6.2 miSE (130°)11.5 mphMostly Cloudy
1:50 PM51.8 °F24.8 °F35 %29.62 in6.2 miSouth (170°)10.4 mph23.0 mphMostly Cloudy
2:20 PM53.6 °F24.8 °F33 %29.59 in6.2 miSSE (150°)10.4 mphMostly Cloudy
2:50 PM53.6 °F23.0 °F30 %29.59 in6.2 miSSE (150°)10.4 mphMostly Cloudy
3:20 PM53.6 °F24.8 °F33 %29.62 in6.2 miSE (140°)9.2 mphMostly Cloudy
3:50 PM51.8 °F24.8 °F35 %29.62 in6.2 miVariable6.9 mphMostly Cloudy
4:00 PM53.0 °F25.0 °F22 %29.61 in25.0 miSE (130°)6.7 mphScattered Clouds
4:20 PM51.8 °F26.6 °F38 %29.62 in6.2 miSE (140°)8.1 mphMostly Cloudy
4:50 PM51.8 °F24.8 °F35 %29.62 in6.2 miSSE (160°)9.2 mphMostly Cloudy
5:20 PM51.8 °F24.8 °F35 %29.62 in6.2 miSE (130°)10.4 mphMostly Cloudy
5:50 PM51.8 °F26.6 °F38 %29.65 in6.2 miSSE (160°)6.9 mphMostly Cloudy
6:20 PM42.8 °F32.0 °F66 %29.68 in6.2 miWSW (240°)32.2 mph47.2 mphMostly Cloudy
6:50 PM39.2 °F35.6 °F87 %29.77 in6.2 miWSW (240°)17.3 mph28.8 mphRainLight Rain Showers
7:00 PM39.0 °F35.0 °F79 %29.82 in6.0 miWSW (240°)17.9 mphRainLight Rain Showers
7:20 PM39.2 °F33.8 °F81 %29.77 in6.2 miSSW (210°)8.1 mphRainLight Rain Showers
7:50 PM39.2 °F33.8 °F81 %29.80 in6.2 miNE (40°)4.6 mphMostly Cloudy
8:20 PM39.2 °F33.8 °F81 %29.80 in6.2 miENE (70°)5.8 mphMostly Cloudy
8:50 PM39.2 °F33.8 °F81 %29.80 in6.2 miSSE (160°)3.5 mphMostly Cloudy
9:20 PM39.2 °F33.8 °F81 %29.80 in6.2 miVariable2.3 mphMostly Cloudy
9:50 PM39.2 °F33.8 °F81 %29.80 in6.2 miWNW (290°)2.3 mphMostly Cloudy
10:00 PM38.0 °F34.0 °F81 %29.88 in19.0 miWNW (290°)2.2 mphPartly Cloudy
10:20 PM37.4 °F35.6 °F93 %29.83 in6.2 miWSW (250°)3.5 mphMostly Cloudy
10:50 PM37.4 °F35.6 °F93 %29.83 in6.2 miWest (270°)4.6 mphRainLight Rain Showers
11:20 PM37.4 °F35.6 °F93 %29.86 in6.2 miVariable1.2 mphRainLight Rain
11:50 PM37.4 °F35.6 °F93 %29.86 in6.2 miVariable2.3 mphLight Drizzle
Hourly data recorded from LOWI, located miles away from Garmisch-Partenkirchen, Germany







STORIES FROM OUR PARTNERS